CAL105 RCTP-RJFK

Flight info

Callsign CAL105
Flight time 1h 22m
Altitude 35000
Route MOLKA1C MOLKA M750 MOMPA Y451 HKC
Aircraft B77W/H-SDE1E2E3FGHIJ2J3J4J5M1RWXY/LB1D1

Departure

Time 2026-05-04 11:20
Airport Taiwan Taoyuan International Airport (RCTP)

Arrival

Time 2026-05-04 12:42
Airport Kagoshima Airport (RJFK)
Time Latitude Longitude Altitude Speed Heading
2026-05-04 10:42 25.08174 121.23381 122 ft 0 kts 139°
2026-05-04 10:51 25.08128 121.23327 122 ft 0 kts 139°
2026-05-04 11:06 25.08131 121.23325 122 ft 2 kts 139°
2026-05-04 11:06 25.08142 121.23315 122 ft 2 kts 139°
2026-05-04 11:08 25.08231 121.23285 122 ft 2 kts 225°
2026-05-04 11:10 25.08235 121.23290 122 ft 0 kts 230°
2026-05-04 11:12 25.08235 121.23289 122 ft 0 kts 230°
2026-05-04 11:12 25.08224 121.23276 122 ft 3 kts 228°
2026-05-04 11:12 25.08200 121.23246 122 ft 5 kts 229°
2026-05-04 11:13 25.08170 121.23207 122 ft 7 kts 229°
2026-05-04 11:13 25.08154 121.23172 122 ft 5 kts 279°
2026-05-04 11:13 25.08179 121.23135 122 ft 7 kts 316°
2026-05-04 11:13 25.08202 121.23102 122 ft 4 kts 275°
2026-05-04 11:14 25.08184 121.23061 121 ft 7 kts 233°
2026-05-04 11:14 25.08135 121.22997 122 ft 14 kts 229°
2026-05-04 11:14 25.08055 121.22896 121 ft 20 kts 229°
2026-05-04 11:16 25.07289 121.21922 122 ft 20 kts 229°
2026-05-04 11:16 25.07200 121.21808 121 ft 19 kts 229°
2026-05-04 11:16 25.07162 121.21755 122 ft 4 kts 257°
2026-05-04 11:17 25.07177 121.21717 122 ft 7 kts 311°
2026-05-04 11:17 25.07204 121.21691 122 ft 0 kts 320°
2026-05-04 11:19 25.07337 121.21659 121 ft 9 kts 49°
2026-05-04 11:19 25.07467 121.21826 121 ft 57 kts 49°
2026-05-04 11:19 25.07887 121.22356 122 ft 121 kts 51°
2026-05-04 11:19 25.08557 121.23213 137 ft 170 kts 50°
2026-05-04 11:20 25.09331 121.24212 695 ft 175 kts 52°
2026-05-04 11:20 25.10142 121.25249 1376 ft 183 kts 52°
2026-05-04 11:20 25.10976 121.26309 2096 ft 190 kts 52°
2026-05-04 11:20 25.11895 121.27491 2526 ft 215 kts 52°
2026-05-04 11:22 25.19637 121.37498 8406 ft 272 kts 50°
2026-05-04 11:22 25.20867 121.39098 9265 ft 277 kts 50°
2026-05-04 11:23 25.22116 121.40723 10089 ft 284 kts 50°
2026-05-04 11:23 25.23424 121.42426 10681 ft 300 kts 50°
2026-05-04 11:24 25.31121 121.56338 13172 ft 424 kts 86°
2026-05-04 11:25 25.31237 121.59646 13898 ft 433 kts 87°
2026-05-04 11:25 25.31526 121.62920 14890 ft 434 kts 84°
2026-05-04 11:25 25.31891 121.66266 15655 ft 442 kts 84°
2026-05-04 11:26 25.32944 121.73080 17099 ft 457 kts 80°
2026-05-04 11:27 25.37589 121.98132 21946 ft 495 kts 79°
2026-05-04 11:28 25.38305 122.01880 22569 ft 500 kts 79°
2026-05-04 11:28 25.39019 122.05612 23212 ft 504 kts 79°
2026-05-04 11:28 25.39747 122.09413 23858 ft 509 kts 79°
2026-05-04 11:28 25.40484 122.13270 24465 ft 514 kts 79°
2026-05-04 11:29 25.41224 122.17137 25085 ft 519 kts 79°
2026-05-04 11:29 25.42067 122.21056 25706 ft 524 kts 73°
2026-05-04 11:29 25.43260 122.24880 26339 ft 529 kts 69°
2026-05-04 11:29 25.44542 122.28683 26922 ft 534 kts 69°
2026-05-04 11:31 25.53858 122.56388 31095 ft 560 kts 69°
2026-05-04 11:33 25.63310 122.84785 35120 ft 561 kts 68°
2026-05-04 11:33 25.65980 122.92756 35142 ft 556 kts 68°
2026-05-04 11:34 25.68749 123.00958 35146 ft 558 kts 68°
2026-05-04 11:34 25.71483 123.09081 35145 ft 557 kts 68°
2026-05-04 11:35 25.74170 123.17082 35148 ft 556 kts 68°
2026-05-04 11:35 25.76870 123.25140 35152 ft 556 kts 68°
2026-05-04 11:36 25.79576 123.33237 35157 ft 556 kts 68°
2026-05-04 11:36 25.82264 123.41295 35157 ft 557 kts 68°
2026-05-04 11:37 25.85059 123.49274 35164 ft 555 kts 62°
2026-05-04 11:37 25.89225 123.56424 35160 ft 548 kts 45°
2026-05-04 11:38 25.94760 123.62077 35170 ft 535 kts 28°
2026-05-04 11:38 26.01152 123.66031 35158 ft 522 kts 18°
2026-05-04 11:39 26.07787 123.69479 35151 ft 524 kts 17°
2026-05-04 11:41 26.30921 123.81579 35154 ft 524 kts 17°
2026-05-04 11:41 26.37542 123.85057 35163 ft 527 kts 17°
2026-05-04 11:42 26.44208 123.88568 35161 ft 523 kts 17°
2026-05-04 11:42 26.50865 123.92077 35161 ft 527 kts 17°
2026-05-04 11:43 26.57536 123.95599 35157 ft 525 kts 17°
2026-05-04 11:43 26.64023 123.99410 35167 ft 535 kts 27°
2026-05-04 11:43 26.66986 124.01990 35158 ft 546 kts 36°
2026-05-04 11:44 26.69668 124.05078 35154 ft 552 kts 44°
2026-05-04 11:44 26.74616 124.11670 35158 ft 551 kts 45°
2026-05-04 11:45 26.79541 124.18288 35161 ft 554 kts 45°
2026-05-04 11:45 26.84466 124.24911 35166 ft 557 kts 45°
2026-05-04 11:46 26.89395 124.31546 35165 ft 554 kts 45°
2026-05-04 11:46 26.94360 124.38236 35162 ft 555 kts 45°
2026-05-04 11:47 26.99300 124.44900 35171 ft 556 kts 45°
2026-05-04 11:47 27.04271 124.51610 35174 ft 556 kts 45°
2026-05-04 11:48 27.09209 124.58285 35177 ft 554 kts 45°
2026-05-04 11:48 27.14139 124.64955 35166 ft 560 kts 45°
2026-05-04 11:49 27.19088 124.71668 35145 ft 554 kts 45°
2026-05-04 11:49 27.24043 124.78394 35148 ft 559 kts 45°
2026-05-04 11:50 27.29012 124.85153 35159 ft 558 kts 45°
2026-05-04 11:50 27.33943 124.91867 35151 ft 561 kts 46°
2026-05-04 11:51 27.38914 124.98650 35149 ft 558 kts 46°
2026-05-04 11:51 27.43893 125.05394 35164 ft 560 kts 45°
2026-05-04 11:52 27.48903 125.12147 35156 ft 559 kts 46°
2026-05-04 11:52 27.53889 125.18881 35156 ft 561 kts 45°
2026-05-04 11:53 27.58896 125.25658 35167 ft 560 kts 45°
2026-05-04 11:53 27.63897 125.32436 35166 ft 564 kts 45°
2026-05-04 11:55 27.83791 125.59516 35172 ft 560 kts 45°
2026-05-04 11:56 27.88789 125.66344 35164 ft 565 kts 45°
2026-05-04 11:56 27.93771 125.73164 35157 ft 563 kts 45°
2026-05-04 11:57 27.98755 125.79998 35155 ft 564 kts 46°
2026-05-04 11:57 28.03742 125.86845 35169 ft 563 kts 45°
2026-05-04 11:58 28.08727 125.93701 35159 ft 564 kts 45°
2026-05-04 11:58 28.13685 126.00532 35153 ft 561 kts 46°
2026-05-04 11:59 28.18660 126.07394 35157 ft 566 kts 46°
2026-05-04 11:59 28.23659 126.14307 35158 ft 563 kts 45°
2026-05-04 12:00 28.28607 126.21155 35157 ft 566 kts 45°
2026-05-04 12:00 28.33612 126.28096 35162 ft 564 kts 45°
2026-05-04 12:01 28.38570 126.34981 35162 ft 567 kts 45°
2026-05-04 12:02 28.56018 126.59304 35169 ft 565 kts 45°
2026-05-04 12:03 28.60972 126.66234 35157 ft 565 kts 46°
2026-05-04 12:03 28.65938 126.73193 35151 ft 571 kts 46°
2026-05-04 12:04 28.70952 126.80235 35146 ft 565 kts 46°
2026-05-04 12:04 28.75897 126.87187 35149 ft 568 kts 46°
2026-05-04 12:05 28.80850 126.94165 35154 ft 568 kts 45°
2026-05-04 12:05 28.85828 127.01189 35154 ft 565 kts 46°
2026-05-04 12:06 28.90818 127.08239 35157 ft 569 kts 46°
2026-05-04 12:06 28.95746 127.15219 35162 ft 567 kts 45°
2026-05-04 12:07 29.00714 127.22261 35152 ft 570 kts 46°
2026-05-04 12:07 29.05629 127.29247 35151 ft 566 kts 45°
2026-05-04 12:08 29.10624 127.36352 35145 ft 568 kts 45°
2026-05-04 12:08 29.15583 127.43420 35143 ft 570 kts 45°
2026-05-04 12:09 29.20563 127.50530 35145 ft 571 kts 45°
2026-05-04 12:09 29.25533 127.57639 35144 ft 572 kts 45°
2026-05-04 12:10 29.30507 127.64764 35147 ft 570 kts 45°
2026-05-04 12:10 29.35442 127.71844 35119 ft 576 kts 46°
2026-05-04 12:11 29.40424 127.79012 35124 ft 573 kts 46°
2026-05-04 12:11 29.45367 127.86134 35128 ft 573 kts 46°
2026-05-04 12:12 29.50373 127.93358 35130 ft 577 kts 46°
2026-05-04 12:12 29.55345 128.00539 35127 ft 574 kts 46°
2026-05-04 12:14 29.75371 128.29576 35140 ft 579 kts 46°
2026-05-04 12:15 29.80400 128.36899 35138 ft 577 kts 46°
2026-05-04 12:15 29.85419 128.44222 35142 ft 582 kts 46°
2026-05-04 12:16 29.90414 128.51524 35132 ft 577 kts 46°
2026-05-04 12:16 29.95376 128.58795 35142 ft 579 kts 47°
2026-05-04 12:17 30.00395 128.66162 35134 ft 583 kts 47°
2026-05-04 12:17 30.05408 128.73531 35118 ft 581 kts 47°
2026-05-04 12:18 30.10374 128.80844 35124 ft 581 kts 47°
2026-05-04 12:18 30.15364 128.88208 35115 ft 582 kts 46°
2026-05-04 12:19 30.20311 128.95517 35117 ft 581 kts 47°
2026-05-04 12:19 30.25287 129.02885 35119 ft 581 kts 47°
2026-05-04 12:20 30.30267 129.10272 35122 ft 582 kts 47°
2026-05-04 12:20 30.35185 129.17584 35094 ft 576 kts 47°
2026-05-04 12:21 30.37660 129.21271 34468 ft 575 kts 47°
2026-05-04 12:21 30.40106 129.24911 33515 ft 580 kts 47°
2026-05-04 12:21 30.42571 129.28586 32691 ft 583 kts 47°
2026-05-04 12:21 30.45087 129.32338 31882 ft 585 kts 48°
2026-05-04 12:22 30.47599 129.36090 31028 ft 588 kts 49°
2026-05-04 12:22 30.50067 129.39780 30437 ft 584 kts 49°
2026-05-04 12:22 30.52550 129.43498 29968 ft 578 kts 50°
2026-05-04 12:22 30.55023 129.47205 29444 ft 573 kts 50°
2026-05-04 12:23 30.57437 129.50825 28886 ft 569 kts 50°
2026-05-04 12:23 30.59840 129.54433 28329 ft 564 kts 50°
2026-05-04 12:23 30.62233 129.58028 27769 ft 560 kts 50°
2026-05-04 12:23 30.64575 129.61549 27230 ft 555 kts 50°
2026-05-04 12:24 30.66939 129.65108 26677 ft 551 kts 51°
2026-05-04 12:24 30.69267 129.68613 26103 ft 546 kts 50°
2026-05-04 12:24 30.71553 129.72061 25552 ft 542 kts 50°
2026-05-04 12:24 30.73844 129.75517 24987 ft 537 kts 50°
2026-05-04 12:25 30.76122 129.78957 24439 ft 533 kts 50°
2026-05-04 12:25 30.78354 129.82330 23885 ft 529 kts 50°
2026-05-04 12:25 30.80590 129.85715 23343 ft 525 kts 50°
2026-05-04 12:25 30.82837 129.89040 22778 ft 519 kts 45°
2026-05-04 12:26 30.85326 129.91956 22240 ft 511 kts 36°
2026-05-04 12:26 30.88136 129.94426 21991 ft 493 kts 28°
2026-05-04 12:26 30.90952 129.96629 21614 ft 486 kts 28°
2026-05-04 12:26 30.93743 129.98791 21081 ft 484 kts 28°
2026-05-04 12:27 30.96573 130.00983 20446 ft 483 kts 28°
2026-05-04 12:27 30.99354 130.03137 19805 ft 483 kts 28°
2026-05-04 12:27 31.02142 130.05301 19183 ft 481 kts 28°
2026-05-04 12:27 31.04921 130.07460 18605 ft 478 kts 29°
2026-05-04 12:28 31.07650 130.09586 18192 ft 465 kts 29°
2026-05-04 12:28 31.10304 130.11656 17962 ft 445 kts 29°
2026-05-04 12:28 31.12838 130.13634 17670 ft 429 kts 28°
2026-05-04 12:28 31.15319 130.15569 17150 ft 421 kts 29°
2026-05-04 12:29 31.17742 130.17456 16524 ft 415 kts 29°
2026-05-04 12:29 31.20081 130.19282 15889 ft 405 kts 30°
2026-05-04 12:29 31.22404 130.21095 15235 ft 396 kts 30°
2026-05-04 12:29 31.24671 130.22867 14576 ft 388 kts 30°
2026-05-04 12:30 31.26904 130.24612 13865 ft 379 kts 31°
2026-05-04 12:30 31.29060 130.26298 13097 ft 371 kts 31°
2026-05-04 12:30 31.31182 130.27959 12216 ft 368 kts 31°
2026-05-04 12:30 31.33285 130.29605 11445 ft 361 kts 31°
2026-05-04 12:31 31.35349 130.31223 10816 ft 351 kts 31°
2026-05-04 12:31 31.37330 130.32777 10569 ft 335 kts 31°
2026-05-04 12:31 31.39212 130.34255 10422 ft 318 kts 31°
2026-05-04 12:31 31.41009 130.35666 10343 ft 302 kts 31°
2026-05-04 12:32 31.42712 130.37004 10276 ft 285 kts 30°
2026-05-04 12:32 31.45934 130.39535 9624 ft 276 kts 31°
2026-05-04 12:32 31.47525 130.40784 9289 ft 274 kts 31°
2026-05-04 12:33 31.49085 130.42011 8970 ft 271 kts 31°
2026-05-04 12:33 31.50663 130.43253 8600 ft 270 kts 31°
2026-05-04 12:33 31.52215 130.44475 8275 ft 266 kts 31°
2026-05-04 12:33 31.53741 130.45679 7942 ft 264 kts 31°
2026-05-04 12:34 31.55266 130.46878 7565 ft 263 kts 32°
2026-05-04 12:34 31.56783 130.48073 7190 ft 263 kts 33°
2026-05-04 12:34 31.58296 130.49268 6841 ft 262 kts 33°
2026-05-04 12:34 31.59810 130.50461 6496 ft 261 kts 34°
2026-05-04 12:35 31.61307 130.51643 6164 ft 261 kts 33°
2026-05-04 12:35 31.62826 130.52841 5826 ft 260 kts 33°
2026-05-04 12:35 31.64145 130.54266 5451 ft 260 kts 56°
2026-05-04 12:35 31.64798 130.56198 5091 ft 260 kts 77°
2026-05-04 12:36 31.65134 130.58296 4741 ft 260 kts 78°
2026-05-04 12:36 31.65442 130.60364 4440 ft 255 kts 78°
2026-05-04 12:36 31.65740 130.62360 4421 ft 238 kts 77°
2026-05-04 12:36 31.66011 130.64180 4392 ft 222 kts 77°
2026-05-04 12:37 31.66271 130.65932 4189 ft 215 kts 77°
2026-05-04 12:37 31.66526 130.67650 3870 ft 215 kts 77°
2026-05-04 12:37 31.66673 130.69411 3529 ft 217 kts 93°
2026-05-04 12:37 31.66339 130.71126 3265 ft 215 kts 104°
2026-05-04 12:38 31.65922 130.72728 3192 ft 200 kts 104°
2026-05-04 12:38 31.65531 130.74280 2941 ft 196 kts 97°
2026-05-04 12:38 31.65610 130.75813 2812 ft 189 kts 67°
2026-05-04 12:38 31.66171 130.77228 2801 ft 189 kts 59°
2026-05-04 12:39 31.66809 130.78560 2795 ft 187 kts 50°
2026-05-04 12:39 31.67813 130.79431 2793 ft 180 kts 13°
2026-05-04 12:39 31.69030 130.79532 2785 ft 176 kts 343°
2026-05-04 12:39 31.70077 130.78862 2797 ft 170 kts 326°
2026-05-04 12:40 31.71077 130.78133 2721 ft 168 kts 330°
2026-05-04 12:40 31.72065 130.77495 2500 ft 155 kts 330°
2026-05-04 12:40 31.72979 130.76880 2310 ft 148 kts 330°
2026-05-04 12:40 31.73866 130.76288 2120 ft 144 kts 330°
2026-05-04 12:41 31.74735 130.75703 1927 ft 144 kts 330°
2026-05-04 12:41 31.75609 130.75131 1704 ft 144 kts 330°
2026-05-04 12:41 31.76485 130.74530 1471 ft 142 kts 330°
2026-05-04 12:41 31.77330 130.73973 1303 ft 140 kts 330°
2026-05-04 12:42 31.78177 130.73401 1153 ft 141 kts 330°
2026-05-04 12:42 31.79041 130.72818 951 ft 144 kts 330°
2026-05-04 12:42 31.79853 130.72269 898 ft 107 kts 330°
2026-05-04 12:42 31.80300 130.71964 908 ft 49 kts 330°
2026-05-04 12:43 31.80565 130.71786 911 ft 39 kts 330°
2026-05-04 12:43 31.80733 130.71664 912 ft 15 kts 320°
2026-05-04 12:43 31.80808 130.71571 912 ft 16 kts 306°
2026-05-04 12:43 31.80852 130.71498 912 ft 5 kts 295°
2026-05-04 12:44 31.80851 130.71448 912 ft 7 kts 245°
2026-05-04 12:44 31.80804 130.71413 913 ft 9 kts 182°
2026-05-04 12:44 31.80735 130.71446 912 ft 12 kts 149°
2026-05-04 12:44 31.80660 130.71498 912 ft 12 kts 149°
2026-05-04 12:45 31.80586 130.71549 911 ft 12 kts 150°
2026-05-04 12:45 31.80513 130.71597 911 ft 12 kts 150°
2026-05-04 12:45 31.80463 130.71631 910 ft 3 kts 161°
2026-05-04 12:45 31.80433 130.71613 910 ft 6 kts 229°
2026-05-04 12:46 31.80405 130.71559 910 ft 7 kts 240°
2026-05-04 12:46 31.80385 130.71519 910 ft 2 kts 239°